SL-16 DEB, 22620

Orbit data source: Space-Track

SL-16 DEB, 22620 is space debris in LEO originally from a launch on Fri, 26 Mar 1993 UTC launched from the Tyuratam Missile And Space Complex (TTMTR). Debris objects in space refer to the collection of defunct objects orbiting the Earth. Examples of debris include non-operational satellites, rocket bodies, and fragments generated from explosions, collisions, or faulty payload assembly.

Loading next visibility...
Identifier
22620, 1993-016AE
Orbit
LEO
Country
Flag of CISCIS
Related business
Manufacturer
Unknown
Mission
Spacecraft
Bus & Motor
Unknown
Mass
Unknown
Launch date (UTC)
1993-03-26 (32 years ago)
Launch vehicle
Unknown
Launch site
Tyuratam Missile And Space Complex (TTMTR)
Object type
Payload
Rocket body
Debris
Shape & HBR
Unknown
Radar Cross Section
Medium (>0.1 m² and <1 m²)

Expand to show TLE details & history
Last TLE update: 11 hours ago

TLE from 11 hours ago
0 SL-16 DEB
1 22620U 93016AE  25258.82841648  .00000014  00000-0  48664-4 0  9991
2 22620  71.0087  23.2905 0136200 247.8319 188.8336 13.84095819639579
Epoch: 2025-09-15T19:52Z
TLE epoch observation values (Epoch: 2025-09-15T19:52:55.183Z)
Latitude
66.9025°
Longitude
143.43367°
Altitude
1,059.086 km
Speed
7.279 km/s
True Right ascension
05h 06m 45s
True Declination
66° 46' 59"
Sunlit
Object was in daylight at epoch
Visualization orbit readout
Latitude
Unknown
Longitude
Unknown
Altitude
Unknown
Speed
Unknown
Apparent Right ascension
Unknown
Apparent Declination
Unknown
Sunlit
N/A
Visualization observer readout
Local Sidereal Time
23:23:35
Azimuth
Unknown
Elevation
Unknown
Doppler factor
Unknown
Orbital elements
Apogee altitude
1,047.122 km
Perigee altitude
847.576 km
Semi-major axis
7,325.486 km
Eccentricity
0.01362
Inclination
71.0087°
RAAN
23.2905°
Arg. of periapsis
247.8319°
True anomaly
188.59789°
Mean anomaly
188.8336°
Eccentric anomaly
188.71535°
Mean motion
3.46169 °/min
Orbital period
104 mins
BSTAR
0.000048664
Loading maneuver chart data...
Computing Atmospheric mass density...
Loading historical data...
Loading historical data...
Loading historical data...
Loading historical data...
Loading historical data...
Loading historical data...
Loading historical data...

Documentation

Showing up to 5 results
|